Location: Kawakawa
(35.3830°S, 174.0670°E)
Time: 02:26:42
(UTC+13:00)

Altair - Pass Details

Date: 09 December 2019
Orbit: 1502 x 1682 km, 47.2° (Epoch: 23 January)

Event Time Altitude Azimuth Distance (km) Brightness Sun altitude
Rises 11:38:04 0° 287° (WNW) 4,787 9.9 65.3°
Reaches altitude 10° 11:41:12 10° 283° (WNW) 3,830 9.5 65.9°
Maximum altitude 11:50:53 59° 204° (SSW) 1,869 8.7 67.7°
Drops below altitude 10° 12:00:55 10° 125° (SE) 3,956 9.9 69.4°
Sets 12:04:14 0° 121° (ESE) 4,952 10.3 70.0°
